Regional Weather Roundup
Issued by NWS

Home | Current Version | Previous Version | Graphics & Text | Print | Product List | Glossary On
Versions: 1 2 3 4 5 6 7 8 9 10 11 12 13 14 15 16 17 18 19 20 21 22 23 24 25 26 27
000
ASUS45 KBOU 271507
RWRCO

WEATHER ROUNDUP FOR COLORADO
NATIONAL WEATHER SERVICE DENVER/BOULDER CO
900 AM MDT SAT AUG 27 2016

NOTE: "FAIR" INDICATES FEW OR NO CLOUDS BELOW 12000 FEET WITH NO
SIGNIFICANT WEATHER AND/OR OBSTRUCTIONS TO VISIBILITY.

COZ001>005-013-030-031-271600-
...NORTHWEST COLORADO...

CITY           SKY/WX    TMP DP  RH WIND       PRES   REMARKS
CRAIG          FAIR      56  43  61 CALM      30.26S
HAYDEN         FAIR      54  37  54 E8        30.28R
MEEKER         FAIR      52  43  71 CALM      30.27S
MOUNT WERNER   NOT AVBL
STEAMBOAT SPGS FAIR      49  39  68 CALM      30.29S
WALDEN         FAIR      50  36  57 S3        30.34F
$$

COZ006>008-011-271600-
...WEST CENTRAL VALLEYS...

CITY           SKY/WX    TMP DP  RH WIND       PRES   REMARKS
GRAND JUNCTION FAIR      64  46  52 E8        30.19S
MONTROSE       FAIR      58  46  64 E5        30.24F
EAGLE          NOT AVBL
RIFLE          FAIR      55  50  83 NE3       30.26S
DELTA          NOT AVBL
NUCLA          FAIR     N/A N/A N/A CALM      30.27R
$$

COZ017>023-064>068-271600-
...SOUTHWEST COLORADO...

CITY           SKY/WX    TMP DP  RH WIND       PRES   REMARKS
DURANGO        FAIR      59  44  57 CALM      30.27R
CORTEZ         FAIR      56  53  90 NE7       30.22S
PAGOSA SPRINGS FAIR      54  45  70 CALM      30.34S
TELLURIDE      PTSUNNY   49  41  73 CALM      30.41S
WOLF CREEK PAS FAIR      41  36  81 SW9       30.57R
$$

COZ009-010-012-014-032>034-037-058>063-271600-
...CENTRAL COLORADO...

CITY           SKY/WX    TMP DP  RH WIND       PRES   REMARKS
ASPEN          FAIR      51  40  65 N5        30.33S
BUENA VISTA    FAIR      54  37  52 NW9       30.33S
COPPER MTN     NOT AVBL
BERTHOUD PASS  FAIR      36  23  60 N18       30.55R
COTTONWOOD PAS FAIR      54  34  47 CALM      30.42S
GUNNISON       FAIR      48  37  66 NE3       30.38F
KREMMLING      FAIR      46  37  71 CALM      30.36S
LEADVILLE      FAIR      49  34  56 N5        30.41S
MONARCH PASS   FAIR      37  34  87 W14       30.64R
SALIDA         FAIR      55  38  53 NW9       30.38S
SUNLIGHT       FAIR      45  37  76 NE3       30.51S
WILKERSON PASS FAIR      43  30  61 W6        30.52R
$$

COZ069>075-271600-
...SAN LUIS VALLEY/SANGRE DE CRISTO MOUNTAINS...

CITY           SKY/WX    TMP DP  RH WIND       PRES   REMARKS
ALAMOSA        FAIR      53  41  63 CALM      30.32S
LA VETA PASS   FAIR      50  41  71 S7        30.45R
SAGUACHE       FAIR      55  41  58 SE6       30.34S
$$

COZ035-036-038>040-271600-
...NORTHERN COLORADO FRONT RANGE...

CITY           SKY/WX    TMP DP  RH WIND       PRES   REMARKS
DENVER INTL AP FAIR      64  46  52 W7        30.15R
DMNS CITY PARK   N/A     65  44  47 SW3G9     30.14S
AURORA         MOSUNNY   64  42  44 SW8       30.16R
FRONT RANGE AP MOSUNNY   66  46  48 SW7       30.16R
ERIE MUNI ARPT FAIR      65  48  54 E6        30.13S
BOULDER MUN AP FAIR      63  46  55 N3        30.14R
CENTENNIAL     FAIR      66  37  34 W5        30.17R
BROOMFIELD     MOSUNNY   64  45  48 VRB3      30.16R
FORT COLLINS   FAIR      57  52  82 CALM      30.13S
LONGMONT       FAIR      64  51  62 CALM      30.15R
$$

COZ041-046-047-076>085-087-088-271600-
...PIKES PEAK/PALMER DIVIDE AND SOUTHERN FOOTHILLS...

CITY           SKY/WX    TMP DP  RH WIND       PRES   REMARKS
COLO. SPRINGS  FAIR      71  44  37 CALM      30.19S
A. F. ACADEMY  FAIR      66  37  34 NW8       30.20S
SCHRIEVER AFB  NOT AVBL
ELLICOTT       NOT AVBL
FALCON         FAIR      65  38  37 W7        30.23F
FORT CARSON    FAIR      66  45  46 NW7       30.16S
LIMON          FAIR      68  49  50 W5        30.14S
MONUMENT HILL  FAIR      63  37  39 W10       30.25S
TRINIDAD       FAIR      65  46  50 W13       30.17S
$$

COZ042>045-048>051-090-091-271600-
...NORTHEAST COLORADO...

CITY           SKY/WX    TMP DP  RH WIND       PRES   REMARKS
GREELEY ARPT   FAIR      61  54  77 CALM      30.13S
AKRON          FAIR      61  51  70 NW7       30.12R
BURLINGTON     FOG       58  55  90 N8        30.11R VSB 1/4
WRAY           NOT AVBL
STERLING       CLOUDY    52  52 100 CALM      30.09S FOG
HOLYOKE        FOG       59  55  88 SE8       30.09F VSB 1/2
FORT MORGAN    FAIR      61  53  73 W3        30.12S
$$

COZ086-089-092>099-271600-
...SOUTHEAST COLORADO...

CITY           SKY/WX    TMP DP  RH WIND       PRES   REMARKS
PUEBLO         FAIR      68  49  50 SW6       30.11R
LA JUNTA       FAIR      64  54  69 W3        30.09S
LAMAR          FAIR      64  57  78 W6        30.05S
SPRINGFIELD      N/A     69  56  62 W8        30.08R
$$




USA.gov is the U.S. government's official web portal to all federal, state and local government web resources and services.